Location: Dana
(41.8364°N, 106.7042°W)
Time: 14:54:14
(UTC+00:00)

Injun/Solrad 3 - Pass Details

Date: 13 May 2026
Orbit: 867 x 989 km, 66.8° (Epoch: 7 June)

Event Time Altitude Azimuth Distance (km) Brightness Sun altitude
Rises 22:02:31 0° 183° (S) 3,487 11.1 45.5°
Reaches altitude 10° 22:05:09 10° 174° (S) 2,568 10.4 45.0°
Maximum altitude 22:10:32 36° 110° (ESE) 1,408 8.9 44.1°
Drops below altitude 10° 22:16:06 10° 45° (NE) 2,661 10.0 43.1°
Sets 22:18:52 0° 38° (NE) 3,629 10.6 42.6°
